QPF
0.01 0.01 0.02 0.01 0.01 0.01 0.01 0.00 0.01 0.01 0.02 0.01 0.01 0.02 0.02 0.02 0.02 0.02 0.01 0.01 0.01 0.01 0.01 0.01 0.01 0.01 0.01 0.01 0.01 0.02 0.01 0.02 0.02 0.01 0.01 0.00 0.00 0.00 0.00 0.00 0.00 0.00 0.00 0.00
0.01 0.01 0.01 0.01 0.01 0.01 0.01 0.01 0.01 0.01 0.01 0.01 0.01 0.02 0.03 0.03 0.03 0.02 0.02 0.01 0.01 0.01 0.01 0.01 0.01 0.01 0.01 0.01 0.01 0.01 0.01 0.01 0.01 0.01 0.01 0.00 0.00 0.00 0.00 0.00 0.00 0.00 0.00 0.00
0.01 0.01 0.01 0.01 0.01 0.02 0.01 0.01 0.01 0.01 0.01 0.01 0.02 0.02 0.04 0.04 0.04 0.02 0.01 0.01 0.01 0.01 0.01 0.01 0.01 0.00 0.00 0.00 0.00 0.01 0.01 0.01 0.01 0.01 0.01 0.00 0.00 0.00 0.00 0.00 0.00 0.00 0.00 0.00
0.01 0.02 0.02 0.02 0.02 0.01 0.01 0.01 0.01 0.01 0.01 0.01 0.01 0.02 0.02 0.02 0.02 0.01 0.01 0.01 0.00 0.00 0.00 0.00 0.01 0.00 0.00 0.00 0.01 0.00 0.00 0.00 0.01 0.01 0.01 0.01 0.00 0.00 0.01 0.00 0.00 0.00 0.00 0.00
0.01 0.01 0.01 0.02 0.01 0.01 0.01 0.01 0.01 0.01 0.01 0.01 0.01 0.01 0.01 0.01 0.01 0.01 0.01 0.00 0.00 0.00 0.00 0.00 0.00 0.00 0.01 0.01 0.01 0.00 0.00 0.00 0.00 0.01 0.01 0.01 0.01 0.01 0.01 0.01 0.00 0.01 0.01 0.01
0.01 0.00 0.01 0.01 0.02 0.02 0.01 0.01 0.01 0.01 0.01 0.01 0.00 0.01 0.01 0.01 0.01 0.01 0.01 0.01 0.00 0.00 0.00 0.00 0.00 0.01 0.01 0.01 0.01 0.00 0.00 0.00 0.01 0.01 0.01 0.01 0.01 0.01 0.01 0.01 0.01 0.01 0.01 0.01
0.01 0.01 0.01 0.01 0.01 0.01 0.01 0.01 0.01 0.01 0.01 0.01 0.01 0.01 0.01 0.02 0.01 0.00 0.01 0.01 0.01 0.01 0.01 0.01 0.00 0.00 0.01 0.01 0.01 0.00 0.00 0.00 0.01 0.01 0.00 0.00 0.01 0.01 0.01 0.01 0.01 0.01 0.01 0.01
0.01 0.01 0.01 0.01 0.01 0.00 0.01 0.01 0.01 0.01 0.00 0.00 0.01 0.01 0.01 0.00 0.00 0.00 0.00 0.00 0.01 0.02 0.02 0.01 0.00 0.00 0.01 0.01 0.01 0.01 0.00 0.00 0.01 0.00 0.01 0.01 0.01 0.01 0.01 0.01 0.01 0.01 0.01 0.01
0.01 0.00 0.00 0.01 0.00 0.00 0.00 0.00 0.01 0.01 0.01 0.01 0.01 0.01 0.01 0.00 0.00 0.00 0.00 0.00 0.00 0.01 0.01 0.01 0.01 0.00 0.01 0.01 0.01 0.01 0.01 0.00 0.00 0.01 0.01 0.01 0.01 0.01 0.01 0.01 0.01 0.02 0.02 0.02
0.01 0.00 0.00 0.00 0.01 0.01 0.00 0.00 0.00 0.00 0.01 0.01 0.01 0.01 0.01 0.00 0.00 0.01 0.01 0.01 0.00 0.01 0.01 0.01 0.01 0.00 0.00 0.01 0.01 0.01 0.01 0.01 0.01 0.01 0.01 0.01 0.01 0.01 0.01 0.02 0.02 0.02 0.02 0.02
0.01 0.01 0.00 0.01 0.01 0.00 0.00 0.00 0.00 0.00 0.00 0.01 0.01 0.01 0.01 0.01 0.01 0.01 0.01 0.02 0.01 0.01 0.01 0.01 0.01 0.01 0.01 0.01 0.01 0.01 0.01 0.01 0.01 0.01 0.02 0.01 0.01 0.01 0.02 0.03 0.03 0.04 0.04 0.05
0.00 0.00 0.00 0.00 0.00 0.00 0.00 0.00 0.00 0.01 0.01 0.01 0.00 0.00 0.01 0.01 0.00 0.00 0.01 0.01 0.03 0.02 0.01 0.01 0.01 0.01 0.02 0.01 0.01 0.01 0.01 0.02 0.02 0.03 0.03 0.03 0.02 0.01 0.01 0.01 0.03 0.04 0.05 0.05
0.01 0.01 0.01 0.00 0.00 0.01 0.01 0.01 0.01 0.01 0.01 0.00 0.00 0.00 0.00 0.00 0.00 0.00 0.01 0.01 0.01 0.02 0.01 0.01 0.01 0.02 0.02 0.01 0.02 0.02 0.02 0.02 0.02 0.03 0.03 0.03 0.02 0.01 0.01 0.01 0.01 0.02 0.02 0.02
0.01 0.01 0.01 0.00 0.00 0.00 0.01 0.01 0.01 0.01 0.00 0.00 0.00 0.00 0.00 0.00 0.00 0.00 0.00 0.00 0.01 0.01 0.01 0.01 0.01 0.01 0.01 0.01 0.01 0.02 0.03 0.03 0.02 0.02 0.02 0.02 0.01 0.01 0.01 0.01 0.02 0.01 0.01 0.01
0.00 0.00 0.00 0.00 0.00 0.00 0.00 0.01 0.01 0.00 0.00 0.00 0.00 0.00 0.00 0.00 0.00 0.00 0.00 0.00 0.00 0.01 0.01 0.01 0.01 0.01 0.01 0.01 0.01 0.01 0.01 0.02 0.02 0.02 0.02 0.01 0.01 0.01 0.02 0.03 0.02 0.01 0.01 0.01
0.00 0.00 0.00 0.00 0.00 0.01 0.01 0.01 0.00 0.00 0.00 0.00 0.00 0.00 0.00 0.00 0.00 0.01 0.01 0.00 0.00 0.00 0.01 0.01 0.01 0.01 0.01 0.00 0.00 0.00 0.01 0.01 0.01 0.01 0.01 0.01 0.01 0.01 0.02 0.02 0.01 0.02 0.01 0.01
0.01 0.01 0.01 0.00 0.00 0.00 0.00 0.00 0.00 0.00 0.00 0.00 0.00 0.00 0.00 0.00 0.00 0.00 0.01 0.01 0.00 0.00 0.00 0.01 0.01 0.01 0.01 0.01 0.00 0.01 0.01 0.01 0.01 0.01 0.01 0.01 0.01 0.01 0.01 0.01 0.01 0.01 0.01 0.01
0.00 0.00 0.01 0.01 0.01 0.00 0.00 0.00 0.00 0.00 0.00 0.00 0.00 0.00 0.00 0.00 0.00 0.00 0.00 0.01 0.01 0.00 0.00 0.00 0.01 0.01 0.01 0.01 0.00 0.01 0.01 0.01 0.01 0.01 0.01 0.02 0.02 0.01 0.01 0.01 0.01 0.01 0.01 0.01
0.00 0.00 0.01 0.01 0.01 0.00 0.00 0.00 0.00 0.00 0.00 0.00 0.00 0.00 0.00 0.00 0.00 0.00 0.00 0.00 0.00 0.00 0.00 0.00 0.00 0.00 0.01 0.01 0.01 0.00 0.01 0.01 0.01 0.01 0.01 0.02 0.02 0.02 0.01 0.00 0.00 0.00 0.01 0.01
0.00 0.00 0.01 0.01 0.01 0.00 0.00 0.00 0.00 0.00 0.00 0.00 0.00 0.00 0.00 0.00 0.00 0.00 0.00 0.00 0.00 0.00 0.00 0.00 0.00 0.00 0.01 0.01 0.01 0.01 0.01 0.01 0.01 0.01 0.01 0.02 0.03 0.02 0.01 0.00 0.00 0.00 0.00 0.00
0.00 0.01 0.01 0.01 0.01 0.00 0.00 0.00 0.00 0.00 0.00 0.00 0.00 0.00 0.00 0.00 0.00 0.00 0.00 0.00 0.00 0.00 0.00 0.00 0.00 0.00 0.01 0.01 0.01 0.01 0.01 0.01 0.01 0.01 0.03 0.03 0.03 0.02 0.02 0.01 0.00 0.00 0.00 0.00
0.01 0.01 0.01 0.01 0.01 0.00 0.00 0.00 0.00 0.00 0.00 0.00 0.00 0.00 0.00 0.00 0.00 0.00 0.00 0.00 0.00 0.00 0.00 0.00 0.00 0.00 0.00 0.01 0.01 0.01 0.01 0.02 0.02 0.02 0.03 0.03 0.04 0.03 0.02 0.02 0.01 0.01 0.00 0.00
0.01 0.01 0.01 0.01 0.01 0.00 0.00 0.00 0.00 0.01 0.01 0.01 0.00 0.00 0.00 0.00 0.00 0.00 0.00 0.00 0.00 0.00 0.00 0.00 0.00 0.00 0.00 0.01 0.01 0.01 0.02 0.02 0.02 0.03 0.04 0.04 0.04 0.04 0.03 0.02 0.02 0.02 0.01 0.01
0.01 0.01 0.01 0.01 0.01 0.00 0.00 0.00 0.00 0.01 0.01 0.01 0.01 0.01 0.01 0.00 0.00 0.00 0.00 0.00 0.00 0.00 0.00 0.00 0.00 0.00 0.00 0.00 0.00 0.01 0.02 0.03 0.02 0.03 0.05 0.05 0.05 0.05 0.04 0.03 0.02 0.02 0.01 0.01
0.00 0.00 0.01 0.01 0.01 0.00 0.00 0.00 0.00 0.00 0.00 0.00 0.00 0.01 0.01 0.01 0.01 0.01 0.00 0.00 0.00 0.00 0.00 0.00 0.01 0.01 0.00 0.00 0.01 0.01 0.01 0.01 0.02 0.04 0.05 0.05 0.04 0.04 0.04 0.05 0.04 0.02 0.01 0.01
0.00 0.00 0.01 0.01 0.01 0.01 0.01 0.00 0.00 0.00 0.01 0.00 0.00 0.00 0.01 0.01 0.00 0.00 0.00 0.00 0.00 0.00 0.00 0.00 0.01 0.01 0.01 0.01 0.01 0.01 0.01 0.02 0.02 0.03 0.05 0.05 0.04 0.03 0.02 0.03 0.03 0.03 0.02 0.01
MSLP
1018.48 1019.39 1020.20 1020.90 1021.52 1022.09 1022.66 1023.26 1023.87 1024.49 1025.08 1025.59 1025.99 1026.24 1026.33 1026.28 1026.11 1025.85 1025.54 1025.19 1024.82 1024.45 1024.06 1023.66 1023.25 1022.86 1022.50 1022.20 1021.99 1021.87 1021.87 1021.96 1022.12 1022.31 1022.48 1022.60 1022.65 1022.61 1022.48 1022.29 1022.06 1021.82 1021.60 1021.40
1019.81 1020.60 1021.26 1021.78 1022.22 1022.65 1023.10 1023.62 1024.22 1024.84 1025.46 1026.00 1026.42 1026.68 1026.77 1026.69 1026.49 1026.21 1025.88 1025.54 1025.19 1024.85 1024.50 1024.13 1023.74 1023.34 1022.96 1022.63 1022.38 1022.23 1022.21 1022.30 1022.48 1022.71 1022.95 1023.13 1023.24 1023.24 1023.15 1022.97 1022.74 1022.50 1022.27 1022.08
1021.02 1021.69 1022.19 1022.55 1022.85 1023.16 1023.53 1024.01 1024.58 1025.21 1025.84 1026.38 1026.79 1027.02 1027.06 1026.94 1026.69 1026.37 1026.03 1025.71 1025.40 1025.12 1024.84 1024.55 1024.22 1023.86 1023.50 1023.16 1022.89 1022.72 1022.67 1022.76 1022.95 1023.21 1023.49 1023.73 1023.88 1023.93 1023.87 1023.71 1023.50 1023.26 1023.03 1022.84
1022.02 1022.58 1022.95 1023.20 1023.40 1023.64 1023.98 1024.45 1025.02 1025.66 1026.28 1026.81 1027.17 1027.33 1027.30 1027.09 1026.77 1026.40 1026.05 1025.74 1025.50 1025.30 1025.12 1024.93 1024.70 1024.42 1024.10 1023.78 1023.51 1023.32 1023.26 1023.34 1023.53 1023.80 1024.10 1024.38 1024.58 1024.67 1024.64 1024.51 1024.31 1024.08 1023.86 1023.67
1022.79 1023.23 1023.51 1023.69 1023.86 1024.09 1024.45 1024.94 1025.55 1026.21 1026.82 1027.30 1027.60 1027.67 1027.52 1027.21 1026.80 1026.37 1025.99 1025.70 1025.52 1025.42 1025.35 1025.29 1025.17 1024.98 1024.74 1024.46 1024.21 1024.02 1023.95 1024.00 1024.18 1024.46 1024.77 1025.07 1025.30 1025.43 1025.44 1025.34 1025.16 1024.95 1024.73 1024.54
1023.31 1023.66 1023.88 1024.04 1024.22 1024.50 1024.92 1025.48 1026.14 1026.82 1027.42 1027.86 1028.07 1028.03 1027.77 1027.34 1026.83 1026.33 1025.93 1025.66 1025.53 1025.51 1025.57 1025.62 1025.62 1025.54 1025.38 1025.17 1024.94 1024.76 1024.68 1024.71 1024.88 1025.14 1025.45 1025.77 1026.02 1026.18 1026.23 1026.17 1026.02 1025.82 1025.61 1025.43
1023.60 1023.88 1024.07 1024.24 1024.48 1024.83 1025.34 1025.99 1026.72 1027.42 1028.02 1028.41 1028.54 1028.40 1028.02 1027.48 1026.88 1026.32 1025.89 1025.63 1025.55 1025.62 1025.77 1025.94 1026.06 1026.09 1026.01 1025.86 1025.67 1025.50 1025.41 1025.44 1025.58 1025.83 1026.14 1026.46 1026.73 1026.92 1027.00 1026.97 1026.85 1026.68 1026.49 1026.31
1023.68 1023.91 1024.10 1024.30 1024.61 1025.06 1025.67 1026.40 1027.19 1027.92 1028.50 1028.85 1028.91 1028.69 1028.22 1027.60 1026.93 1026.34 1025.89 1025.65 1025.62 1025.75 1025.99 1026.25 1026.47 1026.59 1026.59 1026.51 1026.36 1026.22 1026.14 1026.15 1026.28 1026.51 1026.81 1027.13 1027.42 1027.63 1027.75 1027.75 1027.67 1027.53 1027.35 1027.19
1023.59 1023.79 1023.98 1024.24 1024.61 1025.14 1025.83 1026.62 1027.45 1028.19 1028.76 1029.06 1029.08 1028.80 1028.28 1027.63 1026.94 1026.34 1025.91 1025.70 1025.71 1025.90 1026.21 1026.55 1026.84 1027.04 1027.13 1027.10 1027.01 1026.91 1026.84 1026.86 1026.98 1027.20 1027.49 1027.81 1028.11 1028.34 1028.48 1028.52 1028.47 1028.36 1028.21 1028.07
1023.35 1023.54 1023.75 1024.04 1024.47 1025.06 1025.78 1026.60 1027.42 1028.14 1028.68 1028.96 1028.94 1028.65 1028.14 1027.50 1026.85 1026.30 1025.91 1025.75 1025.81 1026.05 1026.41 1026.81 1027.17 1027.44 1027.60 1027.64 1027.62 1027.56 1027.53 1027.57 1027.70 1027.92 1028.20 1028.51 1028.81 1029.05 1029.21 1029.28 1029.26 1029.18 1029.06 1028.94
1022.99 1023.18 1023.42 1023.74 1024.19 1024.78 1025.49 1026.28 1027.05 1027.73 1028.22 1028.47 1028.45 1028.19 1027.73 1027.17 1026.61 1026.14 1025.85 1025.76 1025.88 1026.17 1026.58 1027.02 1027.44 1027.77 1028.00 1028.12 1028.17 1028.18 1028.21 1028.29 1028.44 1028.66 1028.94 1029.24 1029.53 1029.78 1029.94 1030.03 1030.04 1029.98 1029.89 1029.79
1022.54 1022.77 1023.02 1023.36 1023.80 1024.35 1025.00 1025.71 1026.39 1026.98 1027.41 1027.63 1027.63 1027.42 1027.07 1026.63 1026.20 1025.87 1025.69 1025.70 1025.89 1026.23 1026.68 1027.16 1027.62 1028.01 1028.31 1028.52 1028.66 1028.76 1028.86 1028.99 1029.18 1029.41 1029.69 1029.98 1030.26 1030.50 1030.67 1030.77 1030.79 1030.76 1030.69 1030.62
1022.08 1022.34 1022.63 1022.95 1023.35 1023.83 1024.38 1024.95 1025.50 1025.98 1026.33 1026.53 1026.55 1026.42 1026.19 1025.91 1025.65 1025.47 1025.43 1025.54 1025.81 1026.20 1026.68 1027.19 1027.69 1028.14 1028.51 1028.81 1029.05 1029.25 1029.44 1029.64 1029.87 1030.13 1030.41 1030.70 1030.96 1031.19 1031.35 1031.46 1031.50 1031.48 1031.44 1031.38
1021.69 1022.00 1022.29 1022.60 1022.93 1023.30 1023.70 1024.11 1024.50 1024.84 1025.10 1025.26 1025.32 1025.28 1025.18 1025.06 1024.98 1024.97 1025.06 1025.28 1025.62 1026.06 1026.56 1027.10 1027.63 1028.13 1028.57 1028.96 1029.30 1029.61 1029.89 1030.18 1030.46 1030.75 1031.04 1031.32 1031.57 1031.78 1031.94 1032.05 1032.11 1032.12 1032.10 1032.06
1021.45 1021.79 1022.09 1022.35 1022.59 1022.82 1023.06 1023.28 1023.50 1023.70 1023.86 1023.98 1024.06 1024.10 1024.13 1024.17 1024.25 1024.39 1024.61 1024.92 1025.32 1025.78 1026.30 1026.85 1027.41 1027.95 1028.46 1028.94 1029.38 1029.79 1030.18 1030.54 1030.89 1031.21 1031.52 1031.80 1032.04 1032.24 1032.40 1032.52 1032.60 1032.64 1032.66 1032.66
1021.42 1021.79 1022.06 1022.26 1022.39 1022.47 1022.52 1022.56 1022.60 1022.65 1022.70 1022.77 1022.86 1022.98 1023.11 1023.29 1023.51 1023.77 1024.09 1024.47 1024.90 1025.38 1025.90 1026.45 1027.02 1027.60 1028.17 1028.73 1029.27 1029.78 1030.26 1030.70 1031.11 1031.48 1031.80 1032.09 1032.34 1032.54 1032.72 1032.86 1032.97 1033.05 1033.11 1033.15
1021.64 1021.99 1022.21 1022.32 1022.32 1022.25 1022.12 1021.97 1021.84 1021.74 1021.69 1021.71 1021.79 1021.95 1022.17 1022.44 1022.76 1023.12 1023.51 1023.93 1024.38 1024.86 1025.37 1025.91 1026.49 1027.09 1027.72 1028.34 1028.97 1029.57 1030.14 1030.66 1031.13 1031.54 1031.89 1032.20 1032.46 1032.69 1032.89 1033.07 1033.23 1033.36 1033.48 1033.56
1022.06 1022.35 1022.49 1022.49 1022.35 1022.11 1021.81 1021.49 1021.20 1020.97 1020.82 1020.78 1020.86 1021.04 1021.30 1021.64 1022.03 1022.44 1022.87 1023.31 1023.76 1024.23 1024.73 1025.27 1025.85 1026.47 1027.14 1027.83 1028.53 1029.21 1029.85 1030.44 1030.97 1031.43 1031.83 1032.17 1032.46 1032.73 1032.97 1033.20 1033.41 1033.61 1033.78 1033.91
1022.56 1022.76 1022.79 1022.66 1022.38 1021.99 1021.53 1021.06 1020.63 1020.28 1020.05 1019.96 1020.02 1020.20 1020.49 1020.86 1021.29 1021.73 1022.18 1022.63 1023.08 1023.54 1024.02 1024.56 1025.15 1025.80 1026.50 1027.24 1028.00 1028.75 1029.46 1030.12 1030.71 1031.22 1031.66 1032.05 1032.39 1032.70 1033.00 1033.29 1033.56 1033.81 1034.03 1034.21
1022.98 1023.07 1022.97 1022.71 1022.29 1021.77 1021.18 1020.59 1020.05 1019.62 1019.32 1019.19 1019.22 1019.39 1019.70 1020.08 1020.52 1020.98 1021.44 1021.89 1022.34 1022.80 1023.29 1023.83 1024.44 1025.12 1025.86 1026.65 1027.46 1028.27 1029.04 1029.76 1030.40 1030.97 1031.47 1031.90 1032.30 1032.67 1033.02 1033.36 1033.69 1033.98 1034.25 1034.45
1023.19 1023.14 1022.92 1022.53 1021.99 1021.35 1020.67 1019.99 1019.39 1018.90 1018.57 1018.41 1018.42 1018.59 1018.89 1019.28 1019.73 1020.20 1020.67 1021.13 1021.59 1022.07 1022.58 1023.14 1023.78 1024.48 1025.26 1026.09 1026.95 1027.80 1028.63 1029.39 1030.09 1030.71 1031.26 1031.76 1032.21 1032.63 1033.03 1033.42 1033.78 1034.12 1034.40 1034.62
1023.06 1022.88 1022.54 1022.04 1021.41 1020.70 1019.96 1019.25 1018.61 1018.11 1017.76 1017.60 1017.61 1017.78 1018.08 1018.48 1018.93 1019.41 1019.90 1020.38 1020.87 1021.37 1021.91 1022.51 1023.18 1023.92 1024.73 1025.59 1026.48 1027.37 1028.23 1029.04 1029.78 1030.45 1031.05 1031.60 1032.10 1032.57 1033.02 1033.44 1033.83 1034.17 1034.45 1034.66
1022.54 1022.25 1021.81 1021.23 1020.56 1019.82 1019.07 1018.36 1017.74 1017.26 1016.94 1016.78 1016.81 1016.99 1017.30 1017.70 1018.17 1018.66 1019.17 1019.68 1020.20 1020.74 1021.32 1021.95 1022.65 1023.42 1024.25 1025.13 1026.04 1026.94 1027.82 1028.66 1029.44 1030.15 1030.80 1031.39 1031.94 1032.45 1032.93 1033.37 1033.76 1034.10 1034.37 1034.55
1021.66 1021.29 1020.78 1020.17 1019.48 1018.76 1018.05 1017.39 1016.83 1016.40 1016.13 1016.02 1016.07 1016.27 1016.59 1017.01 1017.48 1017.99 1018.52 1019.07 1019.62 1020.20 1020.81 1021.47 1022.18 1022.97 1023.80 1024.68 1025.58 1026.49 1027.37 1028.22 1029.02 1029.76 1030.45 1031.08 1031.67 1032.22 1032.71 1033.16 1033.55 1033.87 1034.12 1034.27
1020.53 1020.09 1019.55 1018.94 1018.29 1017.63 1017.00 1016.43 1015.96 1015.62 1015.42 1015.36 1015.45 1015.68 1016.02 1016.44 1016.93 1017.45 1018.00 1018.56 1019.14 1019.74 1020.37 1021.05 1021.77 1022.54 1023.35 1024.20 1025.08 1025.96 1026.83 1027.67 1028.48 1029.24 1029.96 1030.63 1031.25 1031.83 1032.34 1032.80 1033.18 1033.48 1033.70 1033.82
1019.26 1018.79 1018.25 1017.68 1017.10 1016.54 1016.02 1015.57 1015.21 1014.97 1014.86 1014.87 1015.00 1015.26 1015.61 1016.04 1016.52 1017.05 1017.61 1018.18 1018.77 1019.38 1020.01 1020.67 1021.37 1022.10 1022.87 1023.67 1024.50 1025.34 1026.17 1027.00 1027.80 1028.58 1029.32 1030.02 1030.68 1031.28 1031.81 1032.27 1032.65 1032.94 1033.14 1033.26
Thickness
5718 5705 5697 5702 5706 5706 5702 5696 5692 5699 5710 5706 5702 5704 5711 5715 5715 5714 5715 5715 5716 5720 5725 5726 5726 5726 5724 5723 5722 5721 5720 5719 5717 5715 5713 5711 5710 5710 5711 5711 5711 5710 5710 5709
5702 5697 5707 5713 5711 5706 5700 5693 5692 5699 5709 5706 5700 5702 5710 5713 5714 5716 5716 5715 5717 5719 5721 5722 5723 5723 5722 5721 5721 5720 5719 5717 5716 5715 5712 5710 5709 5708 5708 5708 5707 5707 5707 5706
5697 5703 5715 5711 5706 5700 5697 5693 5693 5694 5700 5701 5697 5694 5702 5711 5715 5716 5718 5718 5718 5719 5719 5719 5720 5720 5720 5720 5720 5720 5718 5716 5715 5713 5710 5708 5706 5705 5704 5703 5703 5704 5704 5703
5701 5709 5710 5706 5702 5701 5690 5701 5700 5696 5687 5679 5688 5674 5694 5701 5706 5712 5714 5716 5717 5720 5720 5719 5719 5719 5720 5720 5720 5719 5717 5715 5713 5711 5709 5706 5702 5699 5700 5700 5700 5701 5701 5700
5699 5706 5705 5701 5703 5705 5698 5704 5699 5694 5686 5678 5681 5675 5684 5696 5700 5708 5713 5716 5718 5720 5720 5719 5720 5720 5721 5720 5719 5718 5715 5713 5712 5710 5707 5704 5701 5700 5699 5698 5698 5697 5697 5697
5704 5712 5711 5708 5710 5709 5705 5698 5691 5682 5676 5666 5675 5672 5676 5690 5699 5706 5713 5716 5718 5719 5720 5720 5720 5719 5718 5718 5716 5715 5713 5711 5709 5708 5705 5703 5700 5698 5696 5694 5693 5693 5693 5693
5693 5702 5710 5713 5702 5701 5697 5678 5662 5660 5654 5660 5676 5673 5680 5701 5708 5710 5712 5715 5717 5717 5717 5717 5716 5715 5715 5714 5714 5712 5710 5707 5706 5705 5703 5701 5699 5697 5695 5693 5691 5690 5689 5689
5679 5680 5700 5707 5701 5693 5689 5680 5661 5653 5650 5657 5671 5670 5688 5708 5712 5714 5715 5715 5715 5715 5715 5715 5715 5714 5713 5713 5711 5709 5707 5705 5703 5702 5700 5699 5697 5695 5693 5692 5691 5689 5688 5688
5679 5680 5703 5709 5709 5701 5687 5678 5681 5664 5660 5655 5662 5676 5694 5708 5709 5709 5710 5711 5711 5712 5713 5713 5713 5712 5711 5711 5710 5708 5705 5703 5700 5699 5698 5696 5694 5693 5691 5690 5689 5688 5687 5686
5691 5681 5694 5703 5705 5701 5696 5685 5670 5662 5651 5647 5659 5668 5676 5693 5699 5703 5704 5706 5708 5710 5710 5711 5711 5710 5709 5709 5708 5706 5704 5701 5699 5697 5695 5694 5692 5690 5689 5687 5685 5685 5684 5683
5693 5679 5683 5691 5690 5687 5686 5680 5671 5661 5658 5648 5647 5663 5694 5696 5700 5700 5703 5706 5707 5708 5708 5708 5708 5708 5707 5706 5704 5703 5700 5698 5696 5694 5692 5690 5688 5687 5686 5684 5683 5682 5681 5680
5687 5673 5668 5680 5694 5698 5692 5684 5673 5661 5655 5652 5648 5663 5702 5701 5702 5702 5703 5704 5706 5707 5707 5706 5705 5704 5702 5701 5700 5699 5697 5695 5693 5691 5689 5687 5685 5684 5682 5681 5680 5679 5678 5677
5685 5671 5659 5665 5675 5684 5683 5682 5677 5666 5655 5648 5647 5666 5698 5699 5700 5701 5702 5702 5703 5703 5703 5702 5701 5699 5699 5697 5696 5695 5694 5693 5691 5688 5686 5683 5681 5680 5679 5678 5676 5675 5674 5672
5688 5669 5662 5659 5665 5673 5675 5678 5675 5666 5653 5650 5656 5670 5687 5692 5694 5697 5698 5699 5699 5699 5698 5697 5696 5696 5695 5695 5693 5692 5690 5689 5688 5685 5682 5680 5679 5677 5676 5674 5673 5671 5670 5668
5681 5668 5669 5671 5676 5676 5676 5677 5674 5669 5665 5659 5667 5672 5685 5690 5692 5695 5696 5695 5695 5695 5694 5693 5692 5692 5691 5690 5689 5688 5687 5685 5684 5681 5679 5678 5676 5675 5673 5671 5669 5667 5666 5664
5671 5665 5666 5667 5673 5673 5672 5676 5674 5674 5673 5670 5672 5675 5691 5693 5692 5691 5691 5691 5690 5690 5690 5690 5690 5688 5687 5687 5686 5684 5683 5682 5680 5678 5676 5675 5673 5671 5669 5667 5664 5662 5660 5659
5659 5658 5653 5651 5660 5665 5661 5675 5676 5676 5678 5675 5671 5680 5687 5686 5686 5687 5688 5687 5686 5686 5686 5687 5686 5686 5685 5684 5683 5681 5680 5678 5676 5675 5673 5671 5669 5667 5665 5663 5660 5657 5655 5653
5653 5647 5639 5639 5649 5643 5666 5683 5683 5679 5678 5678 5679 5682 5684 5685 5685 5687 5686 5684 5683 5683 5683 5683 5683 5683 5682 5681 5680 5679 5677 5675 5673 5671 5670 5668 5665 5663 5661 5658 5656 5653 5651 5648
5655 5645 5633 5628 5633 5644 5665 5677 5677 5673 5672 5678 5676 5678 5679 5680 5680 5680 5684 5683 5682 5682 5681 5681 5681 5680 5679 5678 5677 5675 5673 5671 5669 5667 5666 5665 5663 5660 5657 5654 5651 5649 5646 5644
5646 5642 5632 5625 5630 5634 5659 5676 5680 5673 5663 5676 5675 5672 5672 5672 5662 5669 5679 5679 5679 5678 5678 5677 5677 5676 5674 5673 5672 5670 5667 5665 5664 5664 5663 5662 5659 5656 5654 5651 5648 5645 5642 5640
5633 5628 5624 5620 5623 5637 5661 5670 5671 5652 5657 5673 5672 5670 5667 5665 5666 5670 5673 5673 5673 5673 5673 5673 5671 5670 5669 5668 5667 5664 5663 5661 5662 5660 5659 5657 5655 5652 5650 5647 5643 5640 5637 5633
5626 5621 5618 5615 5618 5633 5662 5660 5654 5656 5665 5667 5667 5666 5664 5663 5665 5666 5666 5666 5666 5666 5666 5666 5664 5663 5663 5663 5661 5659 5658 5659 5657 5655 5653 5651 5649 5648 5645 5641 5638 5634 5631 5626
5624 5626 5623 5625 5634 5649 5654 5657 5660 5660 5659 5660 5660 5660 5659 5657 5657 5658 5658 5659 5659 5659 5658 5658 5657 5656 5655 5655 5656 5654 5654 5653 5652 5649 5647 5645 5643 5641 5638 5635 5632 5628 5624 5621
5623 5624 5620 5621 5634 5643 5647 5650 5653 5654 5655 5657 5657 5655 5654 5652 5651 5651 5651 5651 5651 5650 5651 5651 5649 5648 5648 5649 5650 5649 5649 5648 5646 5643 5640 5638 5635 5633 5631 5628 5626 5622 5618 5615
5618 5616 5615 5619 5630 5636 5642 5644 5646 5647 5649 5650 5651 5650 5649 5647 5645 5644 5644 5644 5644 5644 5643 5643 5643 5642 5642 5642 5643 5644 5643 5642 5639 5636 5633 5631 5628 5626 5623 5620 5618 5616 5614 5612
5613 5613 5612 5617 5628 5625 5632 5639 5640 5639 5641 5643 5643 5643 5643 5642 5640 5639 5638 5638 5637 5637 5637 5636 5636 5635 5635 5635 5636 5637 5636 5635 5632 5629 5626 5623 5621 5618 5615 5612 5609 5607 5606 5604